Weather in Rostock

Germany     54˚05′13″N   12˚06′16″E
temp.,
°C
wind,
m/s
gust,
m/s
humid.,
%
clouds,
%
prec.,
mm/h
press.,
hPa
HPBL,
m
1 december, tue
tue101:00+2˚s51080100 0.6 1012369
04:00+2˚s5890100 0.3 1012358
07:00+2˚sse4787100 0.6 1013344
10:00+2˚se3591100 0.2 1014292
13:00+3˚ese3489100 0.3 1017275
16:00+3˚e3590100 0.1 1019259
19:00+1˚e359582 0.1 1021124
22:00e33940 0.0 102273
2 december, wed
wed201:00−1˚e23960 0.0 102374
04:00ese239627 0.0 102269
07:00+1˚ese249459 0.0 1022157
10:00+2˚se248791 0.0 1021216
13:00+2˚sse357996 0.0 1019276
16:00+2˚se248397 0.0 1017152
19:00−1˚se369284 0.0 1016149
22:00−2˚sse36925 0.0 1014158
3 december, thu
thu301:00−2˚sse37903 0.0 1012189
04:00−3˚se48880 0.0 1010257
07:00−3˚se388916 0.0 1008271
10:00−2˚sse478113 0.0 1006300
13:00+1˚s577819 0.0 1004528
16:00sse477987 0.0 1002374
19:00sse598393 0.0 1001434
22:00−1˚sse51083100 0.0 1000336
4 december, fri
fri401:00−2˚se498668 0.0 998285
04:00−2˚se498895 0.0 997310
07:00−3˚se498996 0.0 996275
10:00−1˚se598096 0.0 995318
13:00+2˚se467448 0.0 994432
16:00e369644 0.0 993156
19:00+1˚ese379771 0.0 993241
22:00+1˚ese3698100 0.0 993178
5 december, sat
sat501:00+2˚e3498100 0.0 993124
04:00−1˚e369670 0.0 993144
07:00+1˚e499285 0.0 993222
10:00+2˚e5991100 0.1 993321
13:00+3˚e3693100 0.2 993205
16:00+2˚se349395 0.0 99357
19:00+1˚s349698 0.0 99586
22:00s2394100 0.0 99748